Location: Carimao
(10.4546°N, 66.7419°W)
Time: 09:14:22
(UTC+00:00)

Cosmos 2173 Rocket - Pass Details

Date: 19 May 2024
Orbit: 943 x 1001 km, 83.0° (Epoch: 22 June)

Event Time Altitude Azimuth Distance (km) Brightness Sun altitude
Rises 23:19:07 0° 355° (N) 3,628 7.4 -9.2°
Reaches altitude 10° 23:21:37 10° 355° (N) 2,675 6.7 -9.8°
Maximum altitude 23:27:44 84° 267° (W) 954 4.0 -11.1°
Drops below altitude 10° 23:33:47 10° 179° (S) 2,655 6.0 -12.5°
Sets 23:36:16 0° 178° (S) 3,598 6.7 -13.1°
